Overview Statistics Trail Chart Weather Telemetry Raw packets
 

This is the latest recevied weather packets stored in our database for station/object KE8DDT-7. If no packets are shown the sender has not sent any weather packets the latest 10 day(s).

<< 9 10 11 12 13 14 15 >>
Time Temp. Humidity Pressure Rain* Wind** Luminosity Snow
1788376752 33.89° C 57% 1006.1 hPa 0 mm - 172 W/m² -
1788376452 33.33° C 57% 1006.2 hPa 0 mm - 668 W/m² -
1788376152 33.33° C 57% 1006.3 hPa 0 mm - 691 W/m² -
1788375852 33.33° C 59% 1006.3 hPa 0 mm - 682 W/m² -
1788375552 33.33° C 57% 1006.3 hPa 0 mm - 703 W/m² -
1788375252 33.33° C 59% 1006.3 hPa 0 mm - 701 W/m² -
1788374952 33.33° C 58% 1006.2 hPa 0 mm - 693 W/m² -
1788374652 33.89° C 57% 1006.2 hPa 0 mm - 691 W/m² -
1788374352 33.33° C 60% 1006.2 hPa 0 mm - 645 W/m² -
1788373921 33.33° C 60% 1006.2 hPa 0 mm - 775 W/m² -
1788373612 33.33° C 61% 1006.3 hPa 0 mm - 624 W/m² -
1788373312 32.78° C 62% 1006.4 hPa 0 mm - 610 W/m² -
1788373012 33.33° C 60% 1006.4 hPa 0 mm - 506 W/m² -
1788372712 33.33° C 61% 1006.4 hPa 0 mm - 591 W/m² -
1788372412 33.33° C 61% 1006.5 hPa 0 mm - 640 W/m² -
1788372112 33.33° C 61% 1006.5 hPa 0 mm - 652 W/m² -
1788371812 33.33° C 61% 1006.5 hPa 0 mm - 798 W/m² -
1788371512 33.33° C 63% 1006.7 hPa 0 mm - 673 W/m² -
1788370912 33.33° C 61% 1006.9 hPa 0 mm - 824 W/m² -
1788370612 33.33° C 62% 1006.9 hPa 0 mm - 800 W/m² -
1788370312 32.78° C 60% 1007 hPa 0 mm - 633 W/m² -
1788370012 32.78° C 60% 1007 hPa 0 mm - 652 W/m² -
1788369712 32.78° C 60% 1007.2 hPa 0 mm - 698 W/m² -
1788369412 32.78° C 62% 1007.2 hPa 0 mm - 742 W/m² -
1788369112 32.78° C 61% 1007.2 hPa 0 mm - 809 W/m² -

* Rain latest hour (hover to see other rain measurements)
** Current wind speed in m/s (hover to see current wind gust speed)